Simultaneous Nadir Overpasses (SNOs) Predictions

Prediction of SNOs between AQUA and METOP-A Satellite Orbit:

Table of predicted SNOs for the next 14.0 days since TLE Epoch: 11/13/2015
Index Date (AQUA) Time (AQUA) Lat,Lon (AQUA) SZA (AQUA ) Date (METOP-A) Time (METOP-A) Lat,Lon (METOP-A) SZA (METOP-A ) Distance(km) Time Diff (sec)
1 11/16/2015 06:02:12 -73.90, -96.52 87.52 11/16/2015 06:01:50 -73.89, -96.49 87.54 1.67 22
2 11/16/2015 06:51:41 73.98, 70.95 92.57 11/16/2015 06:52:28 73.96, 71.01 92.55 2.81 47
3 11/19/2015 00:46:50 73.51, 163.15 92.75 11/19/2015 00:45:41 73.44, 161.54 92.71 51.51 69
4 11/19/2015 01:36:23 -73.89, -30.05 86.85 11/19/2015 01:36:14 -73.91, -30.04 86.83 1.39 9
5 11/19/2015 02:25:52 73.98, 137.41 93.25 11/19/2015 02:26:52 73.97, 137.45 93.25 1.40 60
6 11/21/2015 20:21:08 73.84,-131.13 93.74 11/21/2015 20:19:58 73.85,-131.10 93.75 0.85 70
7 11/21/2015 21:10:35 -73.91, 36.36 86.19 11/21/2015 21:10:39 -73.92, 36.39 86.18 0.96 4
8 11/21/2015 22:00:04 74.00,-156.20 93.92 11/21/2015 22:01:17 73.98,-156.12 93.89 3.24 73
9 11/24/2015 15:55:19 73.84, -64.67 94.34 11/24/2015 15:54:23 73.85, -64.69 94.35 0.95 56
10 11/24/2015 16:44:46 -73.91, 102.83 85.60 11/24/2015 16:45:04 -73.92, 102.81 85.58 1.77 18
11 11/24/2015 17:34:25 74.52, -90.95 95.05 11/24/2015 17:35:31 74.52, -88.34 95.02 77.66 66




NCC Satellite Simultaneous Nadir Overpasses (SNOs) Prediction Service
